Regional Weather Roundup
Issued by NWS Sioux Falls, SD

Home | Current Version | Previous Version | Graphics & Text | Print | Product List | Glossary On
Versions: 1 2 3 4 5 6 7 8 9 10 11 12 13 14 15 16 17 18 19 20 21 22 23 24 25 26 27 28 29 30 31 32 33 34 35 36 37 38 39 40 41 42 43 44 45 46 47 48 49 50
000
ASUS43 KFSD 201510
RWRFSD

WEATHER ROUNDUP FOR SE SOUTH DAKOTA/SW MINNESOTA/NW IOWA
NATIONAL WEATHER SERVICE SIOUX FALLS SD
900 AM CST FRI JAN 20 2017

NOTE: "FAIR" INDICATES FEW OR NO CLOUDS BELOW 12,000 FEET WITH NO
SIGNIFICANT WEATHER AND OR OBSTRUCTIONS TO VISIBILITY.


SDZ038>040-050-052>070-201600-
SOUTHEAST SOUTH DAKOTA

CITY           SKY/WX    TMP DP  RH WIND       PRES   REMARKS
BROOKINGS      CLOUDY    35  35 100 SE12      29.48R FOG     WCI  27
CHAMBERLAIN    FOG       30  30 100 CALM      29.40S VSB<1/4
HURON          CLOUDY    36  36 100 SE12      29.43F
MADISON        CLOUDY    36  36 100 S10         N/A
MITCHELL       CLOUDY    38  37  97 SE15      29.45S
SIOUX FALLS    CLOUDY    37  37 100 S10       29.51S FOG
WINNER         FAIR      27  23  85 SW7       29.39F WCI  19
YANKTON        MOCLDY    37  36  93 SE8       29.49S
$$

MNZ071-072-080-081-089-090-097-098-201600-
SOUTHWEST MINNESOTA

CITY           SKY/WX    TMP DP  RH WIND       PRES   REMARKS
FAIRMONT       FOG       33  33 100 SE6       29.57F VSB 1/4 WCI  28
JACKSON        FOG       32  32 100 SE5       29.54S VSB 1/4 WCI  27
LUVERNE        CLOUDY    34  34 100 S7        29.53R FOG     WCI  28
MARSHALL       CLOUDY    34  34 100 SE7       29.52F FOG     WCI  28
MONTEVIDEO     CLOUDY    34  34 100 S7        29.55R FOG     WCI  28
PIPESTONE      FOG       36  36 100 S6        29.50R VSB 1/2
REDWOOD FALLS  FOG       34  32  92 SE9       29.55S VSB 1   WCI  27
TRACY          CLOUDY    36  36 100 S6        29.52F FOG
WINDOM         FOG       36  34  93 SE5       29.53F VSB<1/4
WORTHINGTON    FOG       34  34 100 S9        29.54R VSB 3/4 WCI  26
$$

IAZ001>003-012>014-020>022-031-032-NEZ013-014-SDZ071-201600-
NORTHWEST IOWA

CITY           SKY/WX    TMP DP  RH WIND       PRES   REMARKS
CHEROKEE       CLOUDY    36  36 100 S6        29.57R FOG
DENISON        CLOUDY    39  39 100 S8        29.57R FOG
ESTHERVILLE    FOG       33  33 100 S5        29.54F VSB 1/4 WCI  29
LE MARS        CLOUDY    37  37 100 S7        29.56S FOG
ORANGE CITY    FOG       36  36 100 S5        29.55R VSB 1/4
SHELDON        FOG       36  36 100 S9        29.54R VSB<1/4
SIOUX CITY     CLOUDY    39  38  96 SE7       29.56S FOG
SPENCER        CLOUDY    35  35 100 SE8       29.56R FOG     WCI  29
STORM LAKE     MIX PCPN  34  34 100 SE7       29.56S VSB<1/4 WCI  28
$$

ABBREVIATIONS USED IN REMARKS
   TC - TEMPERATURE IN CELSIUS
  WCI - WIND CHILL INDEX
   HX - HEAT INDEX
  VSB - VISIBILITY




USA.gov is the U.S. government's official web portal to all federal, state and local government web resources and services.